Simultaneous Nadir Overpasses (SNOs) Predictions

Prediction of SNOs between GOES-16 and LANDSAT-8 Satellite Orbit:

Table of predicted SNOs for the next 14.0 days since TLE Epoch: 7/25/2020
Index Date Time (GOES-16) GOES-16 Lat,Lon LANDSAT-8 Lat,Lon Distance(km) Time Diff (sec)
1 07/26/2020 03:03:27 0.02, -75.19 0.45, -73.20 227.10 80
2 07/26/2020 15:27:22 -0.02, -75.20 0.68, -78.34 358.07 80
3 07/28/2020 15:15:12 -0.02, -75.21 0.00, -75.40 21.41 80
4 07/30/2020 15:00:21 -0.02, -75.21 -0.61, -72.44 315.76 80
5 07/31/2020 03:24:25 0.01, -75.21 -0.52, -77.62 275.02 80
6 08/02/2020 03:09:35 0.02, -75.22 0.16, -74.67 62.64 80
7 08/04/2020 02:57:24 0.03, -75.24 0.78, -71.71 400.95 80
8 08/04/2020 15:21:20 -0.02, -75.25 0.29, -76.87 183.65 80
9 08/06/2020 15:06:29 -0.03, -75.28 -0.33, -73.92 155.84 80
10 08/07/2020 03:30:33 0.02, -75.29 -0.80, -79.10 434.00 80
